Location: Middleville
(41.0560°N, 74.8630°W)
Time: 22:49:53
(UTC-05:00)

OTV 5 (USA 277) - Visible Passes

Search period start: 19 February 2018 00:00
Search period end: 01 March 2018 00:00
Orbit: 404 x 417 km, 43.0° (Epoch: 07 September)

Date Brightness Start Highest point End Pass type
(mag) Time Alt. Az. Time Alt. Az. Time Alt. Az.
19 Feb ? 06:13:26 10° SW 06:16:22 30° SSE 06:19:19 10° E visible
20 Feb ? 05:22:58 10° SSW 05:25:25 21° SSE 05:27:59 10° E visible
21 Feb ? 04:34:43 14° SE 04:34:43 14° SE 04:36:20 10° ESE visible
21 Feb ? 06:08:09 10° WSW 06:11:24 63° SSE 06:14:40 10° ENE visible
22 Feb ? 05:19:05 28° SSW 05:20:23 44° SSE 05:23:33 10° E visible
23 Feb ? 04:30:34 24° ESE 04:30:34 24° ESE 04:32:21 10° E visible
23 Feb ? 06:03:21 10° W 06:06:34 77° NNW 06:09:52 10° ENE visible
24 Feb ? 05:14:44 50° WSW 05:15:30 85° SSE 05:18:48 10° ENE visible
25 Feb ? 04:26:04 26° E 04:26:04 26° E 04:27:43 10° ENE visible
25 Feb ? 05:58:49 12° W 06:01:49 59° N 06:05:05 10° ENE visible
26 Feb ? 05:10:07 51° WNW 05:10:43 65° N 05:13:59 10° ENE visible
27 Feb ? 04:21:23 25° ENE 04:21:23 25° ENE 04:22:55 10° ENE visible
27 Feb ? 05:54:08 12° WNW 05:57:06 62° N 06:00:22 10° E visible
28 Feb ? 05:05:23 48° NW 05:05:59 58° N 05:09:14 10° E visible
